Hourly Weather Ruchaiky

Today, 3 August, Tuesday

Time Temperature Precipitation Wind Pressure Humidity
00:00 +23°C° 0.3 mm 2 mps 744 mmHg 82%
01:00 +21°C° 0.3 mm 2 mps 744 mmHg 85%
02:00 +21°C° 0 mm 2 mps 744 mmHg 89%
03:00 +20°C° 0.3 mm 2 mps 744 mmHg 89%
04:00 +20°C° 0.3 mm 2 mps 744 mmHg 90%
05:00 +20°C° 0.3 mm 2 mps 744 mmHg 90%
06:00 +21°C° 0 mm 3 mps 745 mmHg 82%
07:00 +22°C° 0 mm 4 mps 745 mmHg 75%
08:00 +23°C° 0 mm 4 mps 745 mmHg 68%
09:00 +25°C° 0 mm 4 mps 745 mmHg 61%
10:00 +27°C° 0 mm 4 mps 746 mmHg 55%
11:00 +28°C° 0 mm 4 mps 746 mmHg 48%
12:00 +28°C° 0 mm 4 mps 746 mmHg 46%
13:00 +29°C° 0 mm 4 mps 746 mmHg 43%
14:00 +29°C° 0 mm 4 mps 745 mmHg 40%
15:00 +29°C° 0 mm 3 mps 745 mmHg 40%
16:00 +29°C° 0 mm 3 mps 745 mmHg 40%
17:00 +29°C° 0 mm 3 mps 745 mmHg 39%
18:00 +27°C° 0 mm 3 mps 746 mmHg 44%
19:00 +25°C° 0 mm 3 mps 746 mmHg 48%
20:00 +24°C° 0 mm 3 mps 746 mmHg 53%
21:00 +22°C° 0 mm 3 mps 746 mmHg 54%
22:00 +21°C° 0 mm 3 mps 747 mmHg 56%
23:00 +21°C° 0 mm 3 mps 747 mmHg 57%

Tomorrow, 4 August, Wednesday

Time Temperature Precipitation Wind Pressure Humidity
00:00 +20°C° 0 mm 3 mps 747 mmHg 59%
01:00 +20°C° 0 mm 3 mps 747 mmHg 61%
02:00 +19°C° 0 mm 3 mps 748 mmHg 63%
03:00 +19°C° 0 mm 3 mps 748 mmHg 64%
04:00 +19°C° 0 mm 3 mps 748 mmHg 65%
05:00 +18°C° 0 mm 3 mps 748 mmHg 67%
06:00 +20°C° 0 mm 2 mps 748 mmHg 60%
07:00 +23°C° 0 mm 2 mps 748 mmHg 54%
08:00 +25°C° 0 mm 2 mps 749 mmHg 48%
09:00 +26°C° 0 mm 2 mps 749 mmHg 44%
10:00 +28°C° 0 mm 2 mps 749 mmHg 40%
11:00 +29°C° 0 mm 1 mps 749 mmHg 36%
12:00 +29°C° 0 mm 1 mps 749 mmHg 34%
13:00 +30°C° 0 mm 1 mps 748 mmHg 33%
14:00 +30°C° 0 mm 1 mps 748 mmHg 31%
15:00 +30°C° 0 mm 1 mps 748 mmHg 32%
16:00 +30°C° 0 mm 1 mps 748 mmHg 32%
17:00 +30°C° 0 mm 1 mps 748 mmHg 32%
18:00 +28°C° 0 mm 1 mps 748 mmHg 36%
19:00 +27°C° 0 mm 1 mps 748 mmHg 39%
20:00 +25°C° 0 mm 1 mps 748 mmHg 43%
21:00 +24°C° 0 mm 2 mps 748 mmHg 44%
22:00 +24°C° 0 mm 2 mps 748 mmHg 45%
23:00 +23°C° 0 mm 2 mps 748 mmHg 45%

Day after tomorrow, 5 August, Thursday

Time Temperature Precipitation Wind Pressure Humidity
00:00 +23°C° 0 mm 2 mps 748 mmHg 46%
01:00 +21°C° 0 mm 2 mps 747 mmHg 47%
02:00 +21°C° 0 mm 2 mps 747 mmHg 48%
03:00 +21°C° 0 mm 2 mps 747 mmHg 49%
04:00 +21°C° 0 mm 2 mps 747 mmHg 51%
05:00 +21°C° 0 mm 2 mps 747 mmHg 52%
06:00 +22°C° 0 mm 3 mps 747 mmHg 50%
07:00 +25°C° 0 mm 4 mps 747 mmHg 48%
08:00 +27°C° 0 mm 4 mps 747 mmHg 45%
09:00 +28°C° 0 mm 5 mps 747 mmHg 42%
10:00 +30°C° 0 mm 5 mps 746 mmHg 38%
11:00 +32°C° 0 mm 6 mps 746 mmHg 34%
12:00 +33°C° 0 mm 5 mps 746 mmHg 33%
13:00 +34°C° 0 mm 5 mps 746 mmHg 32%
14:00 +34°C° 0 mm 5 mps 745 mmHg 31%
15:00 +34°C° 0 mm 5 mps 745 mmHg 32%
16:00 +34°C° 0 mm 4 mps 744 mmHg 32%
17:00 +34°C° 0 mm 4 mps 744 mmHg 33%
18:00 +32°C° 0 mm 4 mps 744 mmHg 37%
19:00 +29°C° 0 mm 4 mps 743 mmHg 42%
20:00 +27°C° 0 mm 4 mps 743 mmHg 46%
21:00 +26°C° 0 mm 4 mps 743 mmHg 48%
22:00 +25°C° 0 mm 3 mps 743 mmHg 50%
23:00 +25°C° 0 mm 3 mps 743 mmHg 52%

6 August, Friday

Time Temperature Precipitation Wind Pressure Humidity
00:00 +24°C° 0 mm 3 mps 743 mmHg 55%
01:00 +24°C° 0 mm 3 mps 743 mmHg 58%
02:00 +23°C° 0 mm 2 mps 743 mmHg 61%
03:00 +22°C° 0 mm 3 mps 743 mmHg 62%
04:00 +22°C° 0 mm 3 mps 742 mmHg 63%
05:00 +21°C° 0 mm 3 mps 742 mmHg 64%
06:00 +23°C° 0 mm 4 mps 742 mmHg 58%
07:00 +26°C° 0 mm 5 mps 741 mmHg 52%
08:00 +28°C° 0 mm 5 mps 741 mmHg 45%
09:00 +30°C° 0 mm 5 mps 741 mmHg 40%
10:00 +33°C° 0 mm 5 mps 741 mmHg 35%
11:00 +35°C° 0 mm 5 mps 741 mmHg 30%
12:00 +35°C° 0 mm 4 mps 741 mmHg 28%
13:00 +36°C° 0 mm 4 mps 740 mmHg 26%
14:00 +37°C° 0 mm 4 mps 740 mmHg 25%
15:00 +36°C° 0.1 mm 3 mps 740 mmHg 26%
16:00 +36°C° 0.1 mm 3 mps 739 mmHg 28%
17:00 +36°C° 0.1 mm 2 mps 739 mmHg 30%
18:00 +32°C° 0.1 mm 2 mps 739 mmHg 38%
19:00 +30°C° 0.1 mm 2 mps 739 mmHg 46%
20:00 +28°C° 0.1 mm 3 mps 739 mmHg 54%
21:00 +27°C° 0.1 mm 3 mps 739 mmHg 57%
22:00 +27°C° 0.1 mm 3 mps 739 mmHg 60%
23:00 +26°C° 0.1 mm 3 mps 739 mmHg 62%

7 August, Saturday

Time Temperature Precipitation Wind Pressure Humidity
00:00 +25°C° 0.4 mm 3 mps 738 mmHg 69%
01:00 +24°C° 0.4 mm 3 mps 738 mmHg 75%
02:00 +21°C° 0.4 mm 4 mps 738 mmHg 81%
03:00 +21°C° 0 mm 4 mps 738 mmHg 83%
04:00 +21°C° 0 mm 4 mps 738 mmHg 85%
05:00 +20°C° 0 mm 4 mps 738 mmHg 87%
06:00 +22°C° 0 mm 4 mps 738 mmHg 81%
07:00 +23°C° 0 mm 4 mps 739 mmHg 74%
08:00 +26°C° 0 mm 4 mps 739 mmHg 68%
09:00 +27°C° 0 mm 4 mps 739 mmHg 62%
10:00 +29°C° 0 mm 4 mps 739 mmHg 57%
11:00 +30°C° 0 mm 5 mps 740 mmHg 51%
12:00 +32°C° 0 mm 4 mps 740 mmHg 48%
13:00 +33°C° 0 mm 4 mps 740 mmHg 45%
14:00 +34°C° 0 mm 4 mps 740 mmHg 43%
15:00 +33°C° 0 mm 5 mps 740 mmHg 45%
16:00 +32°C° 0 mm 6 mps 740 mmHg 47%
17:00 +30°C° 0 mm 7 mps 740 mmHg 49%
18:00 +28°C° 0.4 mm 6 mps 741 mmHg 59%
19:00 +24°C° 0.4 mm 6 mps 741 mmHg 69%
20:00 +22°C° 0.4 mm 6 mps 742 mmHg 78%
21:00 +21°C° 0.4 mm 5 mps 742 mmHg 80%
22:00 +21°C° 0.4 mm 5 mps 743 mmHg 82%
23:00 +20°C° 0.4 mm 4 mps 743 mmHg 84%

8 August, Sunday

Time Temperature Precipitation Wind Pressure Humidity
00:00 +20°C° 0.1 mm 4 mps 743 mmHg 84%
01:00 +19°C° 0.1 mm 5 mps 743 mmHg 85%
02:00 +19°C° 0.1 mm 5 mps 743 mmHg 85%
03:00 +19°C° 0 mm 5 mps 744 mmHg 86%
04:00 +18°C° 0 mm 4 mps 744 mmHg 87%
05:00 +18°C° 0 mm 4 mps 744 mmHg 88%
06:00 +20°C° 0 mm 5 mps 745 mmHg 79%
07:00 +21°C° 0 mm 6 mps 745 mmHg 71%
08:00 +23°C° 0 mm 6 mps 745 mmHg 63%
09:00 +24°C° 0 mm 6 mps 746 mmHg 56%
10:00 +27°C° 0 mm 6 mps 746 mmHg 49%
11:00 +28°C° 0 mm 6 mps 746 mmHg 42%
12:00 +29°C° 0 mm 6 mps 746 mmHg 40%
13:00 +30°C° 0 mm 6 mps 746 mmHg 38%
14:00 +30°C° 0 mm 6 mps 746 mmHg 35%
15:00 +30°C° 0 mm 6 mps 746 mmHg 36%
16:00 +30°C° 0 mm 6 mps 747 mmHg 38%
17:00 +29°C° 0 mm 5 mps 747 mmHg 39%
18:00 +27°C° 0 mm 5 mps 747 mmHg 45%
19:00 +26°C° 0 mm 4 mps 747 mmHg 50%
20:00 +24°C° 0 mm 3 mps 748 mmHg 56%
21:00 +22°C° 0 mm 3 mps 748 mmHg 59%
22:00 +21°C° 0 mm 3 mps 748 mmHg 61%
23:00 +21°C° 0 mm 3 mps 748 mmHg 64%
Show more

We Need Your Consent

Meteoprog and our Service Providers may store and access personal data such as cookies, device identifiers or other similar technologies on your device and process such data to personalise content and ads, as well as provide social media features and to analyse the traffic.

  • Store and/or access information on your device

    Cookies, device identifiers or other information can be stored or accessed on your device for the purposes indicated above.

  • Personalised ads and content, ad and content measurement, audience insights, and products development

    Ads and content can be personalised based on a profile. More data can be added to better personalise ads and content. Ad and content performance can be measured. Insights about the audience who saw the ads and content can be derived. Such data can be used to develop or improve user’s experience, systems and software.

By clicking ‘I Agree’ you will allow the use of indicated cookies, device identifiers, web beacons or other similar technologies. Your settings can be changed in the browser on your device.

For certain purposes, legitimate interests may be relied on, rather than consent. You can read more about this in our Privacy and Cookie Policy.